THORAD AGENA D DEB, 4643

Orbit data source: Space-Track

THORAD AGENA D DEB, 4643 is space debris in SSO originally from a launch on Wed, 08 Apr 1970 UTC launched from the Air Force Western Test Range (AFWTR). Debris objects in space refer to the collection of defunct objects orbiting the Earth. Examples of debris include non-operational satellites, rocket bodies, and fragments generated from explosions, collisions, or faulty payload assembly.

Loading next visibility...
Identifier
4643, 1970-025AB
Orbit
SSO
Country
Flag of USUS
Related business
Manufacturer
Unknown
Mission
Spacecraft
Bus & Motor
Unknown
Mass
Unknown
Launch date (UTC)
1970-04-08 (56 years ago)
Launch vehicle
Unknown
Launch site
Air Force Western Test Range (AFWTR)
Object type
Payload
Rocket body
Debris
Shape & HBR
Unknown shape, 0.2 m
Radar Cross Section
Small (<0.1 m²)

Expand to show TLE details & history
Last TLE update: 6 hours ago

TLE from 6 hours ago
0 THORAD AGENA D DEB
1  4643U 70025AB  26036.51966653  .00000190  00000-0  33575-3 0  9995
2  4643  99.4040 251.2572 0010522 190.3402 229.2108 13.55194832753974
Epoch: 2026-02-05T12:28Z
TLE epoch observation values (Epoch: 2026-02-05T12:28:19.188Z)
Latitude
58.27457°
Longitude
-86.95073°
Altitude
1,068.076 km
Speed
7.321 km/s
True Right ascension
15h 43m 11s
True Declination
58° 07' 37"
Sunlit
Object was in daylight at epoch
Visualization orbit readout
Latitude
Unknown
Longitude
Unknown
Altitude
Unknown
Speed
Unknown
Apparent Right ascension
Unknown
Apparent Declination
Unknown
Sunlit
N/A
Visualization observer readout
Local Sidereal Time
20:50:35
Azimuth
Unknown
Elevation
Unknown
Doppler factor
Unknown
Orbital elements
Apogee altitude
1,058.303 km
Perigee altitude
1,042.67 km
Semi-major axis
7,428.623 km
Eccentricity
0.00105
Inclination
99.404°
RAAN
251.2572°
Arg. of periapsis
190.3402°
True anomaly
229.11959°
Mean anomaly
229.2108°
Eccentric anomaly
229.16519°
Mean motion
3.38985 °/min
Orbital period
106.2 mins
BSTAR
0.00033575
Loading maneuver chart data...
Computing Atmospheric mass density...

Documentation

Showing up to 5 results
|